DateTimeUTC,F1_A11,F1_S11,BsB_S11,BsG_S11,BsR_S11,BbsB_S11,BbsG_S11,BbsR_S11,BaB_A11,BaG_A11,BaR_A11,T_S11,U_S11,P_S11,T1_A11
2020-07-09T00:00:00Z,04000380,20000600,,,,,,,,,,32.4,03.0,0674.2,35.8
2020-07-09T00:01:00Z,04000380,20000600,,,,,,,,,,32.5,03.0,0674.2,35.8
2020-07-09T00:02:00Z,04000380,20000600,,,,,,,,,,32.5,02.9,0674.2,35.8
2020-07-09T00:03:00Z,04000380,60000600,,,,,,,,,,32.5,02.8,0674.2,35.8
2020-07-09T00:04:00Z,04000380,40000600,0002.06,0001.10,0001.40,-000.15,0000.21,0000.62,0000.13,0000.12,0000.01,32.5,02.9,0675.2,35.9
2020-07-09T00:05:00Z,04000380,00000600,0001.24,0000.99,0001.22,0000.11,0000.19,0000.27,0000.15,0000.00,0000.10,32.6,03.0,0675.3,35.9
2020-07-09T00:06:00Z,04000380,00000600,0001.13,0001.32,0001.04,0000.62,0000.19,0000.51,0000.19,0000.09,0000.24,32.6,02.9,0675.3,35.9
2020-07-09T00:07:00Z,04000380,00000600,0002.01,0000.98,0001.27,0000.24,0000.22,0000.75,-000.03,0000.23,-000.07,32.6,02.9,0675.3,36.0
2020-07-09T00:08:00Z,04000380,00000600,0001.80,0001.40,0001.15,0001.10,0000.52,0000.36,0000.08,0000.21,0000.09,32.6,02.9,0675.2,36.0
2020-07-09T00:09:00Z,04000380,00000600,0002.17,0000.93,0001.05,-000.11,0000.24,0000.57,0000.08,0000.05,0000.11,32.7,02.9,0675.3,36.0
2020-07-09T00:10:00Z,04000380,00000600,0000.73,0000.99,0000.20,0000.53,0000.21,-000.29,0000.04,0000.06,0000.06,32.7,02.9,0675.3,36.1
2020-07-09T00:11:00Z,04000380,00000600,0002.36,0001.04,0000.94,-000.13,-000.17,0000.35,0000.04,0000.19,0000.05,32.7,02.9,0675.3,36.1
2020-07-09T00:12:00Z,04000380,00000600,0002.65,0001.27,0000.59,-000.01,0000.27,-000.06,0000.13,-000.05,0000.20,32.7,02.8,0675.3,36.1
2020-07-09T00:13:00Z,04000380,00000600,0001.41,0001.16,0000.66,-000.26,0000.31,-000.01,0000.12,0000.09,-000.01,32.8,02.8,0675.3,36.2
2020-07-09T00:14:00Z,04000380,00000600,0001.81,0001.46,0001.38,0000.08,0000.11,0000.10,0000.00,-000.05,-000.08,32.8,02.9,0675.3,36.2
2020-07-09T00:15:00Z,04000380,00000600,0002.17,0000.46,0000.79,0000.15,0000.28,0000.11,0000.10,0000.20,0000.13,32.9,02.9,0675.3,36.2
2020-07-09T00:16:00Z,04000380,00000600,0001.79,0001.60,0001.24,-000.20,0000.29,0000.71,0000.05,0000.02,0000.08,32.9,02.8,0675.3,36.3
2020-07-09T00:17:00Z,04000380,00000600,0002.94,0001.06,0000.68,0000.53,0000.15,0000.14,0000.04,0000.11,0000.12,32.9,02.8,0675.3,36.3
2020-07-09T00:18:00Z,04000380,00000600,0002.53,0000.83,0001.34,0000.83,0000.16,0000.88,-000.00,0000.04,0000.05,33.0,02.8,0675.3,36.3
2020-07-09T00:19:00Z,04000380,00000600,0001.94,0001.46,0000.91,-000.18,0000.12,0000.84,0000.21,0000.26,0000.09,33.0,02.8,0675.3,36.3
2020-07-09T00:20:00Z,04000380,00000600,0000.64,0000.61,0000.55,-000.02,0000.16,0000.47,0000.11,0000.10,0000.01,33.0,02.7,0675.3,36.4
2020-07-09T00:21:00Z,04000380,00000600,0002.00,0001.13,0000.64,0000.49,0000.25,0000.12,0000.03,0000.09,0000.23,33.0,02.8,0675.3,36.4
2020-07-09T00:22:00Z,04000380,00000600,0000.88,0001.08,0000.09,0000.29,0000.06,-000.41,0000.06,0000.09,-000.03,33.1,02.7,0675.3,36.4
2020-07-09T00:23:00Z,04000380,00000600,0003.01,0000.94,0000.88,0000.91,0000.18,0000.07,0000.08,-000.07,0000.10,33.1,02.8,0675.3,36.5
2020-07-09T00:24:00Z,04000380,00000600,0002.47,0001.21,0000.61,0000.34,0000.25,-000.31,-000.01,-000.06,-000.03,33.1,02.7,0675.3,36.5
2020-07-09T00:25:00Z,04000380,00000600,0001.85,0000.61,0000.76,0000.05,0000.33,0000.05,0000.13,0000.28,0000.18,33.2,02.7,0675.3,36.5
2020-07-09T00:26:00Z,04000380,00000600,0000.96,0001.18,0001.32,-000.10,0000.42,0000.41,-000.03,0000.11,0000.13,33.2,02.8,0675.3,36.6
2020-07-09T00:27:00Z,04000380,00000600,0002.50,0000.61,0000.65,0001.26,0000.33,0000.22,0000.19,0000.06,-000.01,33.2,02.7,0675.3,36.6
2020-07-09T00:28:00Z,04000380,00000600,0001.76,0000.84,0000.90,0000.90,-000.24,0000.53,0000.06,-000.07,0000.12,33.2,02.8,0675.3,36.6
2020-07-09T00:29:00Z,04000380,00000600,0001.29,0000.90,0000.64,-000.28,0000.36,0000.53,-000.16,0000.17,-000.09,33.3,02.6,0675.3,36.6
2020-07-09T00:30:00Z,04000380,00000600,0000.96,0000.84,0000.53,0000.31,0000.20,-000.30,0000.14,0000.02,0000.18,33.3,02.6,0675.3,36.7
2020-07-09T00:31:00Z,04000380,00000600,0001.08,0001.27,0001.20,0000.08,0000.11,0000.36,0000.20,0000.29,0000.03,33.3,02.6,0675.3,36.7
2020-07-09T00:32:00Z,04000380,00000600,0002.16,0000.94,-000.10,0000.20,0000.21,-000.03,-000.02,-000.05,-000.03,33.4,02.6,0675.3,36.7
2020-07-09T00:33:00Z,04000380,00000600,0001.98,0001.10,0001.16,0000.90,0000.31,0000.70,0000.19,0000.03,0000.08,33.4,02.6,0675.3,36.7
2020-07-09T00:34:00Z,04000380,00000600,0001.82,0000.11,0000.37,0000.44,0000.22,-000.02,0000.03,0000.26,0000.15,33.4,02.6,0675.3,36.8
2020-07-09T00:35:00Z,04000380,00000600,0001.67,0000.47,0000.97,0000.75,0000.13,0000.04,0000.16,0000.01,0000.02,33.4,02.6,0675.3,36.8
2020-07-09T00:36:00Z,04000380,00000600,0000.06,0000.14,0001.02,-000.26,-000.04,0000.25,-000.00,0000.05,0000.16,33.5,02.6,0675.3,36.8
2020-07-09T00:37:00Z,04000380,00000600,0001.13,0000.95,0001.73,-000.21,0000.23,0000.54,-000.10,0000.05,0000.04,33.5,02.6,0675.3,36.9
2020-07-09T00:38:00Z,04000380,00000600,0001.43,0001.57,0000.86,0000.91,0000.28,0000.45,0000.17,0000.07,0000.02,33.5,02.6,0675.3,36.9
2020-07-09T00:39:00Z,04000380,00000600,0001.02,0000.91,0000.63,0000.11,0000.40,0000.42,0000.12,0000.09,0000.05,33.5,02.6,0675.3,36.9
2020-07-09T00:40:00Z,04000380,00000600,0001.27,0000.78,0000.77,0000.60,0000.25,0000.02,-000.01,0000.22,0000.14,33.6,02.5,0675.3,37.0
2020-07-09T00:41:00Z,04000380,00000600,0001.74,0000.76,0000.37,0000.39,0000.12,-000.10,0000.07,-000.10,-000.04,33.6,02.5,0675.3,37.0
2020-07-09T00:42:00Z,04000380,00000600,0001.21,0001.50,0000.99,0000.33,0000.22,0000.32,0000.08,0000.02,0000.20,33.6,02.5,0675.3,37.0
2020-07-09T00:43:00Z,04000380,00000600,0000.88,0001.59,0001.33,-000.19,0000.34,0000.30,0000.13,0000.17,0000.07,33.7,02.6,0675.3,37.0
2020-07-09T00:44:00Z,04000380,00000600,0001.65,0001.34,0000.94,0000.36,0000.09,0000.63,-000.08,0000.14,0000.06,33.7,02.5,0675.3,37.1
2020-07-09T00:45:00Z,04000380,00000600,0001.55,0001.08,0000.39,-000.63,0000.38,-000.09,0000.15,0000.02,-000.11,33.7,02.5,0675.3,37.1
2020-07-09T00:46:00Z,04000380,00000600,0002.50,0001.26,0000.38,0001.35,0000.29,0000.55,0000.17,0000.23,0000.16,33.8,02.5,0675.2,37.1
2020-07-09T00:47:00Z,04000380,00000600,0000.47,0001.07,0000.77,0001.23,0000.11,0000.37,-000.00,0000.07,0000.12,33.8,02.5,0675.2,37.1
2020-07-09T00:48:00Z,04000380,00000600,0002.05,0000.86,0000.12,0000.08,0000.37,-000.06,0000.10,0000.12,0000.08,33.8,02.5,0675.2,37.2
2020-07-09T00:49:00Z,04000380,00000600,0001.19,0001.25,0002.01,-000.05,0000.29,0000.36,-000.06,-000.20,0000.04,33.8,02.5,0675.3,37.2
2020-07-09T00:50:00Z,04000380,00000600,0001.73,0001.24,0001.23,-000.50,0000.32,0000.46,0000.15,0000.09,-000.10,33.9,02.5,0675.3,37.2
2020-07-09T00:51:00Z,04000380,00000600,0000.29,0001.15,0000.64,0000.93,0000.74,0000.52,0000.07,0000.19,0000.15,33.9,02.5,0675.3,37.3
2020-07-09T00:52:00Z,04000380,00000600,0002.03,0000.92,0000.27,0000.25,0000.35,-000.49,0000.09,0000.18,0000.08,33.9,02.4,0675.3,37.3
2020-07-09T00:53:00Z,04000380,00000600,0001.79,0000.83,0000.45,0000.28,0000.17,0000.83,0000.10,0000.01,0000.10,33.9,02.4,0675.3,37.3
2020-07-09T00:54:00Z,04000380,00000600,0001.62,0000.70,0001.45,0000.17,0000.32,0000.82,0000.06,0000.09,0000.02,33.9,02.4,0675.4,37.3
2020-07-09T00:55:00Z,04000380,00000600,0001.12,0000.05,0000.02,-000.02,-000.16,0000.24,0000.01,-000.05,0000.21,34.0,02.4,0675.4,37.3
2020-07-09T00:56:00Z,04000380,00000600,0000.93,0000.90,0000.87,0000.08,-000.08,0000.37,0000.01,0000.15,-000.12,34.0,02.4,0675.3,37.4
2020-07-09T00:57:00Z,04000380,40000600,,,,,,,,,,34.1,02.1,0675.3,37.4
2020-07-09T00:58:00Z,04000380,60000600,,,,,,,,,,34.1,02.3,0674.3,37.4
2020-07-09T00:59:00Z,04000380,20000600,,,,,,,,,,34.2,02.2,0674.3,37.4
2020-07-09T01:00:00Z,04000380,20000600,,,,,,,,,,34.2,02.2,0674.3,37.5
2020-07-09T01:01:00Z,04000380,20000600,,,,,,,,,,34.3,02.2,0674.3,37.5
2020-07-09T01:02:00Z,04000380,20000600,,,,,,,,,,34.3,02.2,0674.3,37.5
2020-07-09T01:03:00Z,04000380,60000600,,,,,,,,,,34.3,02.2,0674.3,37.5
2020-07-09T01:04:00Z,04000380,40000600,0000.98,0000.75,0000.63,-000.06,0000.21,0000.91,0000.02,0000.02,-000.05,34.3,02.3,0675.3,37.6
2020-07-09T01:05:00Z,04000380,00000600,0000.73,0000.91,0001.53,0000.20,0000.30,0000.12,0000.18,0000.20,0000.05,34.3,02.3,0675.4,37.6
2020-07-09T01:06:00Z,04000380,00000600,0000.73,0001.37,0000.34,0000.99,0000.29,0000.25,0000.03,-000.00,0000.16,34.3,02.3,0675.4,37.6
2020-07-09T01:07:00Z,04000380,00000600,0002.60,0000.92,0000.20,-000.01,0000.10,0000.16,0000.10,0000.13,-000.06,34.3,02.3,0675.4,37.6
2020-07-09T01:08:00Z,04000380,00000600,0000.99,0000.83,0000.28,0000.00,0000.13,0000.33,0000.05,0000.08,0000.12,34.4,02.3,0675.4,37.7
2020-07-09T01:09:00Z,04000380,00000600,0000.71,0001.07,0000.20,-000.32,0000.41,0000.37,0000.14,0000.18,0000.17,34.4,02.3,0675.4,37.7
2020-07-09T01:10:00Z,04000380,00000600,0002.17,0001.59,0000.52,-000.26,0000.18,0000.52,0000.05,0000.05,0000.04,34.4,02.3,0675.4,37.7
2020-07-09T01:11:00Z,04000380,00000600,0001.21,0000.49,-000.06,0000.25,0000.13,-000.23,0000.04,0000.04,0000.08,34.4,02.3,0675.4,37.7
2020-07-09T01:12:00Z,04000380,00000600,0000.58,0000.68,0000.46,-000.54,-000.03,0000.05,0000.12,0000.05,0000.09,34.4,02.3,0675.4,37.8
2020-07-09T01:13:00Z,04000380,00000600,0001.77,0000.83,0001.20,-000.29,0000.61,0000.61,0000.02,0000.17,-000.06,34.5,02.3,0675.4,37.8
2020-07-09T01:14:00Z,04000380,00000600,0001.31,0001.08,0000.48,0000.02,0000.26,0000.44,0000.09,-000.02,0000.23,34.5,02.3,0675.4,37.8
2020-07-09T01:15:00Z,04000380,00000600,0001.12,0000.88,0000.83,-000.20,0000.01,-000.01,0000.05,0000.14,-000.12,34.5,02.3,0675.4,37.8
2020-07-09T01:16:00Z,04000380,00000600,0002.58,0001.10,0000.36,-000.16,0000.49,-000.51,0000.18,0000.02,0000.13,34.5,02.3,0675.4,37.8
2020-07-09T01:17:00Z,04000380,00000600,0001.83,0001.19,0000.60,-000.02,0000.27,0000.19,0000.02,0000.18,-000.02,34.6,02.3,0675.4,37.9
2020-07-09T01:18:00Z,04000380,00000600,0001.39,0001.22,-000.31,0000.23,0000.52,0000.08,0000.11,0000.01,0000.13,34.6,02.3,0675.4,37.9
2020-07-09T01:19:00Z,04000380,00000600,0002.57,0001.45,0000.56,-000.46,0000.16,0000.46,0000.02,0000.11,0000.08,34.6,02.2,0675.4,37.9
2020-07-09T01:20:00Z,04000380,00000600,0001.70,0001.11,0000.26,0001.32,0000.16,0000.27,0000.08,0000.12,0000.11,34.6,02.2,0675.4,37.9
2020-07-09T01:21:00Z,04000380,00000600,0001.57,0000.82,0000.31,0000.58,0000.51,-000.08,0000.13,0000.10,0000.13,34.6,02.3,0675.4,37.9
2020-07-09T01:22:00Z,04000380,00000600,0000.65,0001.09,0001.09,-000.51,0000.51,0000.43,-000.01,0000.08,-000.02,34.7,02.2,0675.4,38.0
2020-07-09T01:23:00Z,04000380,00000600,0002.29,0000.77,0000.21,-000.53,0000.51,0000.83,0000.22,0000.10,0000.25,34.7,02.2,0675.4,38.0
2020-07-09T01:24:00Z,04000380,00000600,0001.06,0000.64,0000.90,0000.56,0000.17,0000.30,-000.05,0000.03,-000.05,34.7,02.2,0675.4,38.0
2020-07-09T01:25:00Z,04000380,00000600,0002.24,0000.70,0000.47,0000.12,0000.32,-000.14,0000.07,0000.19,-000.07,34.7,02.2,0675.3,38.0
2020-07-09T01:26:00Z,04000380,00000600,0002.25,0001.28,0000.83,0000.52,0000.38,0000.37,0000.12,0000.04,0000.15,34.8,02.2,0675.4,38.1
2020-07-09T01:27:00Z,04000380,00000600,0001.15,0000.89,0000.26,-000.29,0000.01,-000.11,0000.08,0000.17,0000.18,34.8,02.2,0675.4,38.1
2020-07-09T01:28:00Z,04000380,00000600,0000.50,0001.24,0001.04,0000.93,0000.22,0000.89,0000.16,-000.02,0000.00,34.8,02.2,0675.4,38.1
2020-07-09T01:29:00Z,04000380,00000600,0001.30,0001.00,0000.68,0000.68,0000.50,0000.49,0000.01,0000.20,0000.05,34.8,02.2,0675.4,38.1
2020-07-09T01:30:00Z,04000380,00000600,0002.23,0000.66,0000.32,-000.61,0000.17,0000.57,0000.14,0000.10,0000.15,34.8,02.2,0675.3,38.1
2020-07-09T01:31:00Z,04000380,00000600,0002.28,0001.09,0000.74,-000.17,-000.08,0000.74,0000.10,-000.01,0000.03,34.9,02.2,0675.3,38.2
2020-07-09T01:32:00Z,04000380,00000600,0001.82,0000.44,-000.11,0000.34,0000.54,-000.47,0000.01,0000.24,0000.11,34.9,02.2,0675.3,38.2
2020-07-09T01:33:00Z,04000380,00000600,0002.31,0000.93,0001.12,0000.25,0000.57,0000.18,0000.21,0000.07,0000.17,34.9,02.1,0675.3,38.2
2020-07-09T01:34:00Z,04000380,00000600,0001.29,0001.09,0000.48,0000.49,-000.07,-000.75,0000.10,0000.05,0000.12,34.9,02.1,0675.3,38.2
2020-07-09T01:35:00Z,04000380,00000600,0000.95,0001.22,0000.79,0000.02,0000.16,0000.01,0000.06,0000.13,0000.05,35.0,02.1,0675.3,38.3
2020-07-09T01:36:00Z,04000380,00000600,0002.68,0001.00,0000.46,-000.09,0000.43,0000.25,0000.05,0000.30,-000.03,35.0,02.2,0675.3,38.3
2020-07-09T01:37:00Z,04000380,00000600,0001.99,0001.49,0000.24,0000.27,0000.24,0000.05,0000.10,-000.13,0000.05,35.0,02.1,0675.3,38.3
2020-07-09T01:38:00Z,04000380,00000600,0001.16,0000.70,0000.25,0000.01,0000.25,0000.39,0000.15,0000.19,0000.16,35.0,02.1,0675.3,38.3
2020-07-09T01:39:00Z,04000380,00000600,0002.30,0001.15,0000.92,0000.49,0000.08,0000.22,0000.06,-000.10,0000.13,35.0,02.2,0675.4,38.3
2020-07-09T01:40:00Z,04000380,00000600,0001.88,0001.44,0000.24,0000.48,0000.70,0000.39,0000.13,0000.21,-000.01,35.1,02.2,0675.3,38.3
2020-07-09T01:41:00Z,04000380,00000600,0002.12,0001.03,0000.23,0000.38,0000.16,-000.33,0000.04,0000.07,0000.11,35.1,02.1,0675.4,38.4
2020-07-09T01:42:00Z,04000380,00000600,0000.94,0001.16,0000.74,0000.71,0000.51,0000.47,0000.08,0000.06,0000.13,35.1,02.2,0675.4,38.4
2020-07-09T01:43:00Z,04000380,00000600,0001.09,0001.87,0000.43,0000.22,0000.10,0000.01,-000.02,0000.18,-000.03,35.1,02.1,0675.4,38.4
2020-07-09T01:44:00Z,04000380,00000600,0002.42,0000.46,0000.71,-000.43,0000.26,0000.27,0000.15,0000.10,0000.03,35.1,02.1,0675.4,38.4
2020-07-09T01:45:00Z,04000380,00000600,0002.23,0001.45,0000.86,0000.43,0000.01,0000.24,0000.19,0000.16,0000.26,35.1,02.2,0675.4,38.4
2020-07-09T01:46:00Z,04000380,00000600,0001.49,0001.32,0000.58,-000.03,-000.02,-000.15,0000.18,0000.13,0000.16,35.2,02.2,0675.4,38.5
2020-07-09T01:47:00Z,04000380,00000600,0003.02,0000.94,0000.53,0000.08,0000.30,0000.14,0000.06,0000.17,0000.10,35.2,02.2,0675.4,38.5
2020-07-09T01:48:00Z,04000380,00000600,0001.43,0000.75,0000.53,0000.74,0000.27,0000.56,0000.15,-000.03,-000.08,35.2,02.1,0675.4,38.5
2020-07-09T01:49:00Z,04000380,00000600,0001.37,0001.33,0000.14,0000.37,0000.08,-000.07,0000.08,0000.20,0000.14,35.2,02.1,0675.4,38.5
2020-07-09T01:50:00Z,04000380,00000600,0001.75,0001.22,0000.40,-000.69,0000.31,-000.12,0000.10,0000.13,-000.02,35.3,02.1,0675.4,38.5
2020-07-09T01:51:00Z,04000380,00000600,0001.93,0001.27,0000.03,0000.07,0000.55,0000.42,0000.06,0000.03,0000.24,35.2,02.1,0675.4,38.5
2020-07-09T01:52:00Z,04000380,00000600,0001.37,0001.27,0001.67,0000.72,0000.31,0001.29,0000.12,0000.17,-000.04,35.3,02.1,0675.4,38.6
2020-07-09T01:53:00Z,04000380,00000600,0002.05,0001.32,0000.80,-000.06,0000.33,-000.02,0000.18,0000.09,0000.14,35.3,02.1,0675.4,38.6
2020-07-09T01:54:00Z,04000380,00000600,0002.39,0002.32,0001.59,0000.31,-000.03,0000.67,-000.01,0000.22,0000.25,35.3,02.1,0675.4,38.6
2020-07-09T01:55:00Z,04000380,00000600,0003.97,0001.26,0000.91,0000.34,0000.60,0000.16,0000.18,0000.03,0000.05,35.3,02.1,0675.4,38.6
2020-07-09T01:56:00Z,04000380,00000600,0003.42,0001.55,0000.94,0000.43,0000.52,-000.05,0000.11,0000.22,-000.02,35.4,02.1,0675.4,38.6
2020-07-09T01:57:00Z,04000380,40000600,,,,,,,,,,35.4,02.2,0675.4,38.6
2020-07-09T01:58:00Z,04000380,60000600,,,,,,,,,,35.4,02.1,0674.5,38.7
2020-07-09T01:59:00Z,04000380,20000600,,,,,,,,,,35.5,01.9,0674.4,38.7
2020-07-09T02:00:00Z,04000380,20000600,,,,,,,,,,35.6,01.9,0674.4,38.7
2020-07-09T02:01:00Z,04000380,20000600,,,,,,,,,,35.6,01.9,0674.4,38.7
2020-07-09T02:02:00Z,04000380,20000600,,,,,,,,,,35.6,01.9,0674.4,38.7
2020-07-09T02:03:00Z,04000380,60000600,,,,,,,,,,35.6,01.9,0674.4,38.7
2020-07-09T02:04:00Z,04000380,40000600,0001.76,0000.79,0001.57,0000.04,0000.65,0000.33,0000.17,0000.01,0000.03,35.6,02.0,0675.4,38.7
2020-07-09T02:05:00Z,04000380,00000600,0001.77,0002.00,0001.22,0000.61,0000.08,0000.08,0000.07,0000.23,-000.00,35.5,02.0,0675.4,38.8
2020-07-09T02:06:00Z,04000380,00000600,0001.64,0001.26,0000.81,-000.26,0000.30,0000.24,0000.27,0000.22,0000.19,35.6,02.0,0675.4,38.8
2020-07-09T02:07:00Z,04000380,00000600,0001.54,0001.64,0001.30,0000.10,0000.16,0000.58,-000.02,0000.09,0000.15,35.6,02.0,0675.4,38.8
2020-07-09T02:08:00Z,04000380,00000600,0002.45,0001.98,0000.37,0000.18,0000.20,-000.02,0000.02,0000.09,0000.11,35.6,02.1,0675.4,38.8
2020-07-09T02:09:00Z,04000380,00000600,0002.58,0001.99,0001.17,-000.14,0000.13,0000.14,0000.16,0000.09,-000.03,35.6,02.1,0675.4,38.8
2020-07-09T02:10:00Z,04000380,00000600,0002.47,0001.16,0000.59,0000.70,0000.47,0000.12,0000.11,0000.14,0000.11,35.6,02.1,0675.4,38.9
2020-07-09T02:11:00Z,04000380,00000600,0002.10,0001.24,0001.73,-000.37,0000.46,0000.97,0000.16,0000.13,0000.06,35.6,02.1,0675.4,38.9
2020-07-09T02:12:00Z,04000380,00000600,0002.94,0001.81,0000.75,0000.31,0000.23,-000.38,0000.20,0000.16,0000.24,35.7,02.0,0675.4,38.9
2020-07-09T02:13:00Z,04000380,00000600,0003.81,0002.13,0001.59,0000.26,0000.07,-000.42,0000.08,0000.12,0000.06,35.7,02.0,0675.4,38.9
2020-07-09T02:14:00Z,04000380,00000600,0002.86,0001.99,0000.93,0000.95,-000.15,0000.12,0000.08,0000.06,0000.17,35.7,02.1,0675.3,38.9
2020-07-09T02:15:00Z,04000380,00000600,0001.59,0001.91,0001.52,0000.86,0000.32,-000.10,0000.23,0000.19,0000.09,35.7,02.0,0675.4,38.9
2020-07-09T02:16:00Z,04000380,00000600,0002.93,0001.36,0002.11,0000.11,0000.49,0000.15,-000.01,0000.12,-000.06,35.7,02.0,0675.4,39.0
2020-07-09T02:17:00Z,04000380,00000600,0001.63,0001.61,0001.88,0000.61,0000.31,0000.52,0000.14,0000.10,0000.02,35.7,02.1,0675.4,39.0
2020-07-09T02:18:00Z,04000380,00000600,0001.92,0001.58,0001.50,0000.65,0000.64,0000.07,0000.15,0000.12,0000.21,35.8,02.0,0675.4,39.0
2020-07-09T02:19:00Z,04000380,00000600,0002.41,0002.19,0001.82,0000.62,0000.99,0000.18,0000.23,0000.12,0000.19,35.8,02.0,0675.4,39.0
2020-07-09T02:20:00Z,04000380,00000600,0003.01,0002.01,0001.83,-000.31,0000.02,-000.22,0000.01,0000.21,-000.03,35.8,02.0,0675.4,39.0
2020-07-09T02:21:00Z,04000380,00000600,0002.52,0001.16,0002.00,0000.69,0000.37,0000.83,0000.22,0000.10,0000.15,35.8,02.0,0675.3,39.0
2020-07-09T02:22:00Z,04000380,00000600,0002.24,0002.02,0001.10,0000.44,0000.39,0000.40,-000.01,0000.08,0000.08,35.8,02.0,0675.3,39.1
2020-07-09T02:23:00Z,04000380,00000600,0001.35,0001.32,0001.27,-000.65,0000.21,-000.18,0000.11,0000.05,0000.07,35.8,02.0,0675.4,39.1
2020-07-09T02:24:00Z,04000380,00000600,0001.73,0001.73,0001.15,0000.43,0000.53,-000.23,0000.18,0000.13,-000.01,35.8,02.0,0675.4,39.1
2020-07-09T02:25:00Z,04000380,00000600,0003.54,0001.23,0002.06,-000.36,0000.27,-000.13,0000.13,0000.10,0000.19,35.9,02.0,0675.3,39.1
2020-07-09T02:26:00Z,04000380,00000600,0001.89,0002.13,0000.73,0000.55,0000.57,0000.01,0000.07,0000.06,0000.09,35.9,02.0,0675.3,39.1
2020-07-09T02:27:00Z,04000380,00000600,0002.66,0001.76,0001.64,0000.61,0000.55,0000.22,0000.15,0000.25,0000.14,35.9,02.0,0675.3,39.2
2020-07-09T02:28:00Z,04000380,00000600,0001.33,0001.40,0001.70,-000.08,0000.20,0001.06,0000.06,0000.12,0000.13,35.9,02.0,0675.3,39.2
2020-07-09T02:29:00Z,04000380,00000600,0002.40,0002.03,0000.55,0000.19,0000.09,-000.96,0000.07,0000.05,0000.04,36.0,02.0,0675.4,39.2
2020-07-09T02:30:00Z,04000380,00000600,0002.72,0001.84,0000.77,0000.62,0000.17,-000.33,0000.23,0000.23,0000.03,36.0,02.0,0675.3,39.2
2020-07-09T02:31:00Z,04000380,00000600,0003.66,0002.13,0002.10,-000.14,0000.28,0000.55,0000.17,0000.08,0000.08,36.0,02.0,0675.3,39.2
2020-07-09T02:32:00Z,04000380,00000600,0002.56,0001.82,0002.46,-000.35,0000.23,0000.38,0000.10,0000.15,0000.22,36.0,02.0,0675.3,39.2
2020-07-09T02:33:00Z,04000380,00000600,0003.02,0001.58,0002.15,-000.12,0000.53,0000.26,0000.13,0000.06,-000.04,36.0,02.1,0675.3,39.3
2020-07-09T02:34:00Z,04000380,00000600,0002.66,0001.79,0002.35,0000.48,0000.20,0000.78,0000.08,0000.19,0000.18,36.0,02.0,0675.3,39.3
2020-07-09T02:35:00Z,04000380,00000600,0003.03,0002.19,0001.00,0000.26,0000.37,-000.65,0000.19,0000.01,0000.12,36.1,02.0,0675.2,39.3
2020-07-09T02:36:00Z,04000380,00000600,0002.67,0002.56,0002.39,0000.71,0000.08,0000.51,0000.08,0000.18,0000.10,36.1,02.0,0675.3,39.3
2020-07-09T02:37:00Z,04000380,00000600,0002.22,0002.31,0001.36,0000.68,0000.33,-000.15,0000.32,0000.33,0000.19,36.1,02.0,0675.2,39.3
2020-07-09T02:38:00Z,04000380,00000600,0004.64,0002.31,0000.91,0000.06,-000.01,-000.23,0000.07,0000.24,0000.16,36.1,02.0,0675.3,39.4
2020-07-09T02:39:00Z,04000380,00000600,0003.45,0002.23,0001.59,0000.05,0000.49,0000.35,0000.10,-000.09,0000.01,36.1,02.0,0675.2,39.4
2020-07-09T02:40:00Z,04000380,00000600,0002.95,0002.15,0001.89,-000.14,0000.19,0000.09,0000.11,0000.18,0000.08,36.2,02.0,0675.3,39.4
2020-07-09T02:41:00Z,04000380,00000600,0002.41,0002.15,0002.15,0000.16,-000.18,0000.14,0000.31,0000.05,0000.23,36.2,02.0,0675.3,39.4
2020-07-09T02:42:00Z,04000380,00000600,0002.73,0001.57,0002.46,0000.46,-000.13,0000.77,-000.09,0000.29,0000.10,36.2,02.0,0675.3,39.5
2020-07-09T02:43:00Z,04000380,00000600,0001.30,0001.60,0001.54,-000.63,0000.11,0000.14,0000.31,0000.18,0000.03,36.2,02.0,0675.3,39.5
2020-07-09T02:44:00Z,04000380,00000600,0003.09,0002.16,0002.45,0000.08,0000.48,0000.25,0000.03,0000.02,0000.09,36.2,01.9,0675.3,39.5
2020-07-09T02:45:00Z,04000380,00000600,0001.99,0001.62,0002.83,-000.35,0000.46,0000.90,0000.07,0000.18,0000.14,36.2,01.9,0675.3,39.5
2020-07-09T02:46:00Z,04000380,00000600,0002.92,0001.96,0001.04,0000.66,0000.58,-000.29,0000.14,0000.18,-000.03,36.3,02.0,0675.3,39.5
2020-07-09T02:47:00Z,04000380,00000600,0003.08,0001.62,0001.37,-000.01,0000.14,-000.19,0000.14,0000.10,0000.15,36.3,01.9,0675.4,39.5
2020-07-09T02:48:00Z,04000380,00000600,0003.08,0001.79,0002.03,0000.27,0000.49,0000.73,0000.22,0000.21,0000.28,36.3,01.9,0675.3,39.6
2020-07-09T02:49:00Z,04000380,00000600,0002.22,0002.62,0001.28,0000.73,0000.47,0001.03,0000.02,0000.14,-000.06,36.3,01.9,0675.3,39.6
2020-07-09T02:50:00Z,04000380,00000600,0002.60,0001.78,0002.01,0001.03,0000.39,0000.67,0000.27,0000.19,0000.18,36.4,01.9,0675.4,39.6
2020-07-09T02:51:00Z,04000380,00000600,0003.22,0002.88,0001.34,-000.44,-000.11,0000.20,0000.08,0000.04,0000.10,36.4,02.0,0675.4,39.6
2020-07-09T02:52:00Z,04000380,00000600,0004.27,0001.58,0001.27,0000.92,0000.12,0000.70,0000.28,0000.19,0000.07,36.4,01.9,0675.4,39.6
2020-07-09T02:53:00Z,04000380,00000600,0003.49,0002.35,0001.18,-000.14,0000.55,0000.06,0000.09,0000.09,0000.10,36.4,01.9,0675.3,39.7
2020-07-09T02:54:00Z,04000380,00000600,0003.20,0002.23,0001.65,0000.31,0000.23,-000.18,0000.19,0000.42,0000.22,36.4,02.0,0675.4,39.7
2020-07-09T02:55:00Z,04000380,00000600,0002.91,0002.74,0001.78,0000.16,0000.09,0000.63,0000.12,-000.05,0000.06,36.4,01.9,0675.4,39.7
2020-07-09T02:56:00Z,04000380,00000600,0003.96,0002.98,0001.99,0000.84,0000.60,0000.66,0000.24,0000.15,0000.15,36.5,01.9,0675.4,39.7
2020-07-09T02:57:00Z,04000380,40000600,,,,,,,,,,36.5,01.9,0675.3,39.7
2020-07-09T02:58:00Z,04000380,60000600,,,,,,,,,,36.6,01.9,0674.3,39.8
2020-07-09T02:59:00Z,04000380,20000600,,,,,,,,,,36.7,01.7,0674.4,39.8
2020-07-09T03:00:00Z,04000380,20000600,,,,,,,,,,36.7,01.7,0674.4,39.8
2020-07-09T03:01:00Z,04000380,20000600,,,,,,,,,,36.7,01.7,0674.4,39.8
2020-07-09T03:02:00Z,04000380,20000600,,,,,,,,,,36.7,01.7,0674.4,39.8
2020-07-09T03:03:00Z,04000380,60000600,,,,,,,,,,36.7,01.7,0674.4,39.9
2020-07-09T03:04:00Z,04000380,40000600,0003.07,0002.59,0001.42,0000.65,0000.90,0000.19,0000.36,0000.05,0000.00,36.7,01.9,0675.3,39.9
2020-07-09T03:05:00Z,04000380,00000600,0002.69,0002.27,0001.14,0000.65,0000.58,0000.01,0000.11,0000.23,0000.15,36.7,01.9,0675.4,39.9
2020-07-09T03:06:00Z,04000380,00000600,0002.21,0001.96,0002.13,0000.26,0000.30,0000.50,-000.02,-000.06,0000.03,36.7,01.9,0675.4,39.9
2020-07-09T03:07:00Z,04000380,00000600,0003.38,0002.45,0002.72,0001.42,0000.35,0000.38,0000.28,0000.25,0000.16,36.8,01.9,0675.4,39.9
2020-07-09T03:08:00Z,04000380,00000600,0002.82,0002.63,0001.71,-000.09,0000.69,0001.02,0000.23,0000.15,0000.09,36.8,01.9,0675.4,39.9
2020-07-09T03:09:00Z,04000380,00000600,0004.09,0002.90,0002.94,0001.25,0000.55,0000.39,0000.08,0000.19,0000.25,36.8,01.9,0675.4,40.0
2020-07-09T03:10:00Z,04000380,00000600,0003.17,0002.90,0003.35,-000.04,-000.02,0001.12,0000.11,0000.04,-000.08,36.8,01.9,0675.4,40.0